This is the latest recevied weather packets stored in our database for station/object E22ZMG-4. If no packets are shown the sender has not sent any weather packets the latest 10 day(s).
| Time | Temp. | Humidity | Pressure | Rain* | Wind** | Luminosity | Snow |
|---|---|---|---|---|---|---|---|
| 1777465968 | 30° C | 47% | 974 hPa | - | - | 0 W/m² | - |
| 1777465343 | 30° C | 47% | 974 hPa | - | - | 0 W/m² | - |
| 1777464719 | 29.44° C | 47% | 974 hPa | - | - | 0 W/m² | - |
| 1777464095 | 29.44° C | 47% | 974 hPa | - | - | 0 W/m² | - |
| 1777463470 | 29.44° C | 47% | 973 hPa | - | - | 0 W/m² | - |
| 1777462846 | 29.44° C | 47% | 973 hPa | - | - | 0 W/m² | - |
| 1777462221 | 29.44° C | 47% | 973 hPa | - | - | 0 W/m² | - |
| 1777461596 | 29.44° C | 47% | 973 hPa | - | - | 0 W/m² | - |
| 1777460971 | 29.44° C | 46% | 973 hPa | - | - | 0 W/m² | - |
| 1777460347 | 28.89° C | 45% | 973 hPa | - | - | 0 W/m² | - |
| 1777459722 | 28.89° C | 44% | 973 hPa | - | - | 0 W/m² | - |
| 1777459097 | 28.89° C | 44% | 973 hPa | - | - | 0 W/m² | - |
| 1777458473 | 27.78° C | 45% | 973 hPa | - | - | 0 W/m² | - |
| 1777457848 | 26.67° C | 47% | 973 hPa | - | - | 0 W/m² | - |
| 1777457224 | 26.67° C | 50% | 973 hPa | - | - | 0 W/m² | - |
| 1777456600 | 26.11° C | 45% | 972 hPa | - | - | 0 W/m² | - |
| 1777455975 | 26.11° C | 49% | 973 hPa | - | - | 0 W/m² | - |
| 1777455350 | 26.11° C | 52% | 973 hPa | - | - | 0 W/m² | - |
| 1777454726 | 25.56° C | 44% | 973 hPa | - | - | 0 W/m² | - |
| 1777454101 | 26.11° C | 47% | 973 hPa | - | - | 0 W/m² | - |
| 1777453477 | 25.56° C | 46% | 973 hPa | - | - | 0 W/m² | - |
| 1777452852 | 26.11° C | 47% | 973 hPa | - | - | 0 W/m² | - |
| 1777452228 | 25° C | 43% | 973 hPa | - | - | 0 W/m² | - |
| 1777451599 | 25.56° C | 41% | 974 hPa | - | - | 0 W/m² | - |
| 1777450974 | 25.56° C | 41% | 974 hPa | - | - | 0 W/m² | - |
* Rain since midnight (hover to see other rain measurements)
** Current wind speed in m/s (hover to see current wind gust speed)